Miscellaneous Local Product
Issued by NWS Hastings, NE

Home | Current Version | Previous Version | Text Only | Print | Product List | Glossary On
Versions: 1 2 3 4 5 6 7 8 9 10 11 12 13 14 15 16 17 18 19 20 21 22 23 24 25 26 27 28 29 30 31 32 33 34 35 36 37 38 39 40 41 42 43 44 45 46 47 48 49 50
000
AXUS43 KGID 011202
MISGRI

GID CWA HOURLY WEATHER ROUNDUP
NATIONAL WEATHER SERVICE HASTINGS NE
700 AM CDT SAT OCT 01 2016

NOTE: "FAIR" INDICATES FEW OR NO CLOUDS BELOW 12,000 FEET WITH NO
SIGNIFICANT WEATHER AND/OR OBSTRUCTIONS TO VISIBILITY.

...SOUTH CENTRAL NEBRASKA...

CITY           SKY/WX    TMP DP  RH WIND       PRES   REMARKS
GRAND ISLAND   CLOUDY    50  47  89 CALM      30.15S
HASTINGS       PTCLDY    50  44  80 E3        30.15R
KEARNEY        PTCLDY    48  43  81 CALM      30.13S
ORD            PTCLDY    42  39  89 CALM      30.13S
YORK           CLOUDY    46  46 100 CALM      30.14S
AURORA         PTCLDY    47  46  99 CALM      30.15R
LEXINGTON      CLOUDY    47  44  89 E5        30.13S
HOLDREGE       CLOUDY    45  42  88 SE5       30.13S
HEBRON         CLOUDY    47  46  97 CALM      30.14S

...NEBRASKA PANHANDLE...

CITY           SKY/WX    TMP DP  RH WIND       PRES   REMARKS
CHADRON        CLEAR     50  44  80 W5        30.03S
ALLIANCE       CLEAR     46  43  89 SE9       30.07S
SCOTTSBLUFF    CLEAR     46  43  89 CALM      30.07S
SIDNEY         CLEAR     43  41  93 SW5       30.11S

...WESTERN AND NORTH CENTRAL NEBRASKA...

CITY           SKY/WX    TMP DP  RH WIND       PRES   REMARKS
VALENTINE      CLEAR     47  43  86 E7        30.08F
AINSWORTH      CLEAR     49  45  85 S7        30.10S
ONEILL         CLOUDY    47  42  81 SE3       30.14S
BROKEN BOW     CLOUDY    42  41  96 CALM      30.13R
IMPERIAL       CLEAR     47  43  86 SE6       30.11S
NORTH PLATTE   PTCLDY    49  44  83 SE8       30.12S
MCCOOK         CLEAR     47  44  90 E3        30.12S

...EASTERN NEBRASKA...

CITY           SKY/WX    TMP DP  RH WIND       PRES   REMARKS
NORFOLK        PTCLDY    43  42  97 SE5       30.15S
SO SIOUX CITY  CLOUDY    57  55  93 CALM      30.15S
TEKAMAH        CLOUDY    57  54  89 CALM      30.15S
COLUMBUS         N/A     41  32  70 CALM      30.15S VSB 1/4
ALBION         CLOUDY    42  41  95 CALM      30.15S
OMAHA EPPLEY   CLOUDY    58  54  86 NW5       30.15R
OFFUTT AFB     CLOUDY    57  57 100 NW1       30.14R
MILLARD        CLOUDY    59  55  85 N3        30.15S
LINCOLN        CLEAR     44  43  96 N5        30.16F
NEBRASKA CITY  CLOUDY    55  54  97 CALM      30.15S
BEATRICE       CLOUDY    46  46 100 CALM      30.15R FOG
FALLS CITY     CLOUDY    54  53  97 NW3       30.13F

...NORTHERN KANSAS...

CITY           SKY/WX    TMP DP  RH WIND       PRES   REMARKS
GOODLAND       CLOUDY    49  44  83 S5        30.11S
HILL CITY      CLEAR     45  42  89 CALM      30.13R
NORTON         SUNNY     46  41  81 CALM      30.12S
PHILLIPSBURG   CLEAR     46  46 100 CALM      30.13S
SMITH CENTER   CLEAR     46  45  93 CALM      30.13S
BELOIT         CLEAR     45  45 100 CALM      30.12S
HAYS           CLOUDY    48  37  66 E6        30.12R
RUSSELL        PTCLDY    50  46  86 SE7       30.10S
CONCORDIA      CLOUDY    48  48 100 CALM      30.13S
SALINA         PTCLDY    54  50  86 CALM      30.13S
TOPEKA         PTCLDY    49  47  93 CALM      30.13S FOG



USA.gov is the U.S. government's official web portal to all federal, state and local government web resources and services.